When you browse on this site, cookies collect data to enhance your experience and personalize the content and advertising you see.
Visit our Privacy Policy to learn more. By continuing to use the site, you agree to this use of cookies and data.
  • en Suisse
  • Liste des pays
  • À 7 jours
  • Température de l'eau
  • Carte météo
  • Widgets météo
  • user-avatar
    Se connecter

    Météo par heure à Suhorukovo

    Ce jour, 23 Août, Vendredi

    Heure Température Précipitation Vent Pression Humidité
    00:00 +13°C° 0 mm 2 m/s 754 mmHg 85%
    01:00 +12°C° 0 mm 2 m/s 754 mmHg 86%
    02:00 +12°C° 0 mm 1 m/s 755 mmHg 88%
    03:00 +12°C° 0 mm 1 m/s 755 mmHg 88%
    04:00 +12°C° 0 mm 1 m/s 755 mmHg 89%
    05:00 +10°C° 0 mm 0 m/s 755 mmHg 90%
    06:00 +13°C° 0 mm 1 m/s 755 mmHg 85%
    07:00 +15°C° 0 mm 1 m/s 755 mmHg 79%
    08:00 +18°C° 0 mm 1 m/s 756 mmHg 74%
    09:00 +19°C° 0 mm 1 m/s 756 mmHg 69%
    10:00 +20°C° 0 mm 1 m/s 755 mmHg 64%
    11:00 +22°C° 0 mm 1 m/s 755 mmHg 59%
    12:00 +22°C° 0 mm 1 m/s 755 mmHg 56%
    13:00 +23°C° 0 mm 1 m/s 755 mmHg 54%
    14:00 +23°C° 0 mm 1 m/s 755 mmHg 52%
    15:00 +23°C° 0 mm 1 m/s 755 mmHg 56%
    16:00 +22°C° 0 mm 1 m/s 754 mmHg 61%
    17:00 +22°C° 0 mm 1 m/s 754 mmHg 66%
    18:00 +20°C° 0 mm 1 m/s 754 mmHg 71%
    19:00 +18°C° 0 mm 1 m/s 754 mmHg 77%
    20:00 +15°C° 0 mm 1 m/s 754 mmHg 83%
    21:00 +14°C° 0 mm 1 m/s 754 mmHg 84%
    22:00 +14°C° 0 mm 1 m/s 754 mmHg 85%
    23:00 +13°C° 0 mm 1 m/s 754 mmHg 87%

    Demain, 24 Août, Samedi

    Heure Température Précipitation Vent Pression Humidité
    00:00 +13°C° 0 mm 1 m/s 754 mmHg 87%
    01:00 +13°C° 0 mm 1 m/s 754 mmHg 88%
    02:00 +12°C° 0 mm 0 m/s 754 mmHg 88%
    03:00 +12°C° 0 mm 1 m/s 753 mmHg 89%
    04:00 +12°C° 0 mm 1 m/s 753 mmHg 90%
    05:00 +12°C° 0 mm 1 m/s 753 mmHg 91%
    06:00 +14°C° 0 mm 1 m/s 753 mmHg 86%
    07:00 +15°C° 0 mm 2 m/s 753 mmHg 81%
    08:00 +17°C° 0 mm 2 m/s 753 mmHg 76%
    09:00 +19°C° 0 mm 2 m/s 753 mmHg 72%
    10:00 +20°C° 0 mm 3 m/s 753 mmHg 68%
    11:00 +21°C° 0 mm 3 m/s 753 mmHg 64%
    12:00 +22°C° 0 mm 3 m/s 752 mmHg 63%
    13:00 +22°C° 0 mm 3 m/s 752 mmHg 62%
    14:00 +23°C° 0 mm 4 m/s 752 mmHg 61%
    15:00 +22°C° 0 mm 3 m/s 752 mmHg 65%
    16:00 +22°C° 0 mm 3 m/s 751 mmHg 69%
    17:00 +23°C° 0 mm 2 m/s 751 mmHg 73%
    18:00 +20°C° 0 mm 2 m/s 751 mmHg 78%
    19:00 +18°C° 0 mm 2 m/s 751 mmHg 83%
    20:00 +17°C° 0 mm 2 m/s 751 mmHg 88%
    21:00 +16°C° 0 mm 2 m/s 751 mmHg 90%
    22:00 +16°C° 0 mm 2 m/s 751 mmHg 92%
    23:00 +15°C° 0 mm 2 m/s 751 mmHg 94%

    Après-demain, 25 Août, Dimanche

    Heure Température Précipitation Vent Pression Humidité
    00:00 +15°C° 0 mm 2 m/s 751 mmHg 95%
    01:00 +15°C° 0 mm 2 m/s 751 mmHg 95%
    02:00 +14°C° 0 mm 2 m/s 752 mmHg 96%
    03:00 +14°C° 0 mm 2 m/s 752 mmHg 96%
    04:00 +14°C° 0 mm 2 m/s 752 mmHg 96%
    05:00 +13°C° 0 mm 2 m/s 752 mmHg 95%
    06:00 +15°C° 0 mm 2 m/s 752 mmHg 90%
    07:00 +16°C° 0 mm 2 m/s 752 mmHg 85%
    08:00 +18°C° 0 mm 2 m/s 753 mmHg 80%
    09:00 +19°C° 0 mm 2 m/s 753 mmHg 73%
    10:00 +20°C° 0 mm 2 m/s 753 mmHg 66%
    11:00 +23°C° 0 mm 2 m/s 753 mmHg 60%
    12:00 +23°C° 0 mm 2 m/s 753 mmHg 58%
    13:00 +23°C° 0 mm 2 m/s 753 mmHg 57%
    14:00 +24°C° 0 mm 1 m/s 753 mmHg 55%
    15:00 +23°C° 0 mm 1 m/s 753 mmHg 60%
    16:00 +23°C° 0 mm 1 m/s 753 mmHg 64%
    17:00 +23°C° 0 mm 1 m/s 753 mmHg 68%
    18:00 +21°C° 0 mm 1 m/s 753 mmHg 72%
    19:00 +19°C° 0 mm 1 m/s 753 mmHg 76%
    20:00 +16°C° 0 mm 1 m/s 753 mmHg 80%
    21:00 +15°C° 0 mm 1 m/s 753 mmHg 81%
    22:00 +14°C° 0 mm 1 m/s 754 mmHg 83%
    23:00 +13°C° 0 mm 1 m/s 754 mmHg 84%

    26 Août, Lundi

    Heure Température Précipitation Vent Pression Humidité
    00:00 +13°C° 0 mm 1 m/s 754 mmHg 86%
    01:00 +13°C° 0 mm 1 m/s 754 mmHg 87%
    02:00 +12°C° 0 mm 1 m/s 754 mmHg 88%
    03:00 +12°C° 0 mm 1 m/s 754 mmHg 88%
    04:00 +12°C° 0 mm 1 m/s 754 mmHg 89%
    05:00 +12°C° 0 mm 1 m/s 754 mmHg 89%
    06:00 +14°C° 0 mm 1 m/s 754 mmHg 84%
    07:00 +16°C° 0 mm 1 m/s 754 mmHg 78%
    08:00 +18°C° 0 mm 1 m/s 754 mmHg 72%
    09:00 +20°C° 0 mm 1 m/s 754 mmHg 69%
    10:00 +21°C° 0 mm 1 m/s 754 mmHg 66%
    11:00 +23°C° 0 mm 1 m/s 754 mmHg 62%
    12:00 +23°C° 0.1 mm 1 m/s 754 mmHg 62%
    13:00 +23°C° 0.1 mm 1 m/s 754 mmHg 62%
    14:00 +24°C° 0.1 mm 2 m/s 753 mmHg 61%
    15:00 +23°C° 0 mm 1 m/s 753 mmHg 65%
    16:00 +23°C° 0 mm 1 m/s 753 mmHg 68%
    17:00 +23°C° 0 mm 1 m/s 752 mmHg 72%
    18:00 +21°C° 0 mm 1 m/s 752 mmHg 76%
    19:00 +20°C° 0 mm 1 m/s 752 mmHg 80%
    20:00 +18°C° 0 mm 1 m/s 752 mmHg 84%
    21:00 +16°C° 0 mm 1 m/s 752 mmHg 86%
    22:00 +16°C° 0 mm 1 m/s 752 mmHg 87%
    23:00 +15°C° 0 mm 1 m/s 752 mmHg 89%

    27 Août, Mardi

    Heure Température Précipitation Vent Pression Humidité
    00:00 +15°C° 0 mm 1 m/s 752 mmHg 90%
    01:00 +15°C° 0 mm 1 m/s 752 mmHg 90%
    02:00 +14°C° 0 mm 2 m/s 751 mmHg 91%
    03:00 +14°C° 0 mm 2 m/s 751 mmHg 91%
    04:00 +14°C° 0 mm 2 m/s 751 mmHg 92%
    05:00 +14°C° 0 mm 2 m/s 751 mmHg 92%
    06:00 +15°C° 0 mm 2 m/s 751 mmHg 88%
    07:00 +17°C° 0 mm 2 m/s 751 mmHg 85%
    08:00 +18°C° 0 mm 2 m/s 751 mmHg 82%
    09:00 +20°C° 0 mm 2 m/s 751 mmHg 77%
    10:00 +21°C° 0 mm 3 m/s 751 mmHg 73%
    11:00 +24°C° 0 mm 3 m/s 751 mmHg 69%
    12:00 +24°C° 0 mm 3 m/s 751 mmHg 67%
    13:00 +25°C° 0 mm 3 m/s 750 mmHg 66%
    14:00 +25°C° 0 mm 3 m/s 750 mmHg 64%
    15:00 +25°C° 0 mm 3 m/s 750 mmHg 67%
    16:00 +24°C° 0 mm 3 m/s 750 mmHg 71%
    17:00 +24°C° 0 mm 2 m/s 750 mmHg 74%
    18:00 +21°C° 0 mm 2 m/s 750 mmHg 78%
    19:00 +19°C° 0 mm 2 m/s 750 mmHg 82%
    20:00 +18°C° 0 mm 2 m/s 750 mmHg 86%
    21:00 +17°C° 0 mm 2 m/s 750 mmHg 88%
    22:00 +16°C° 0 mm 2 m/s 751 mmHg 90%
    23:00 +16°C° 0 mm 2 m/s 751 mmHg 92%

    28 Août, Mercredi

    Heure Température Précipitation Vent Pression Humidité
    00:00 +15°C° 0 mm 1 m/s 751 mmHg 92%
    01:00 +15°C° 0 mm 1 m/s 751 mmHg 93%
    02:00 +15°C° 0 mm 1 m/s 751 mmHg 93%
    03:00 +14°C° 0 mm 1 m/s 751 mmHg 92%
    04:00 +14°C° 0 mm 1 m/s 751 mmHg 92%
    05:00 +13°C° 0 mm 1 m/s 751 mmHg 92%
    06:00 +15°C° 0 mm 1 m/s 751 mmHg 86%
    07:00 +16°C° 0 mm 1 m/s 751 mmHg 80%
    08:00 +17°C° 0 mm 2 m/s 752 mmHg 74%
    09:00 +19°C° 0 mm 2 m/s 752 mmHg 68%
    10:00 +20°C° 0 mm 2 m/s 752 mmHg 62%
    11:00 +21°C° 0 mm 2 m/s 752 mmHg 56%
    12:00 +23°C° 0 mm 2 m/s 752 mmHg 55%
    13:00 +23°C° 0 mm 2 m/s 752 mmHg 53%
    14:00 +23°C° 0 mm 2 m/s 751 mmHg 51%
    15:00 +23°C° 0 mm 1 m/s 751 mmHg 56%
    16:00 +23°C° 0 mm 1 m/s 751 mmHg 60%
    17:00 +22°C° 0 mm 1 m/s 751 mmHg 65%
    18:00 +19°C° 0 mm 2 m/s 751 mmHg 71%
    19:00 +17°C° 0 mm 2 m/s 751 mmHg 77%
    20:00 +15°C° 0 mm 2 m/s 752 mmHg 83%
    21:00 +15°C° 0 mm 2 m/s 752 mmHg 84%
    22:00 +14°C° 0 mm 2 m/s 752 mmHg 84%
    23:00 +13°C° 0 mm 2 m/s 752 mmHg 85%
    Voir plus